Find Starlink 36134

NORAD ID: 66863 Int'l Des: 2025-281 Owner: SPXS Country: US Constellation: starlink operational
LEOCIRCULAR

当前视图

正在加载3D地球...

关于 Starlink 36134

正在加载描述...

即将过境

Passes for default location (London). Set your location on the main map for personalized predictions.

高度历史

Loading altitude history...

两行轨道根数

1 66863U 25281R 26146.38939489 .00030900 00000-0 11273-2 0 9997
2 66863 43.0017 264.2320 0001532 244.8536 115.2157 15.27591267 28072
Epoch: May 26, 2026 • Age: 12 hours

当前状态

高度 484.6 km
速度 7.62 km/s
星下点 -12.98°S, 106.74°W
发射日期 Dec 2, 2025
运行时间 0.4 years
类型 internet

技术详情

分类 Payload
质量 575.00 kg
干质量 530.00 kg
总质量 575.00 kg
长度 0.30 m
直径 4.10 m
跨度 29.00 m
形状 Box + pan
制造商 SPXS
平台类型 Starlink V2MO
阶段状态 In Orbit
所有者/国家 SPXS/US

Most Searched